KB9HUO Weather Reports


time (UTC)temp
F
wind
direction
speed
knots
gust
knots
rain 1hr
in
rain 24hr
in
rain mn
in
humidity
%
barometer
mb
20260504050445 58 226 1.7 2.6 0.00 0.00 0.00 58 1012.5
20260504045942 57 227 2.6 3.5 0.00 0.00 0.00 58 1012.4
20260504045437 57 217 1.7 1.7 0.00 0.00 0.00 57 1012.4
20260504044933 57 197 1.7 2.6 0.00 0.00 0.00 57 1012.5
20260504044431 57 241 1.7 1.7 0.00 0.00 0.00 57 1012.7
20260504043929 57 227 1.7 1.7 0.00 0.00 0.00 57 1012.8
20260504043426 57 234 2.6 2.6 0.00 0.00 0.00 57 1012.6
20260504042923 58 222 2.6 2.6 0.00 0.00 0.00 57 1012.7
20260504042419 58 217 2.6 2.6 0.00 0.00 0.00 56 1012.6
20260504041916 58 218 2.6 2.6 0.00 0.00 0.00 56 1012.8
20260504041412 58 219 1.7 2.6 0.00 0.00 0.00 56 1012.8
20260504040908 58 241 1.7 2.6 0.00 0.00 0.00 56 1012.7
20260504040406 58 229 1.7 2.6 0.00 0.00 0.00 56 1012.9
20260504035901 58 231 0.9 0.9 0.00 0.00 0.00 56 1012.9
20260504035359 59 222 1.7 1.7 0.00 0.00 0.00 55 1012.9
20260504034855 59 218 2.6 3.5 0.00 0.00 0.00 54 1013.1
20260504034353 59 230 3.5 3.5 0.00 0.00 0.00 54 1013.2
20260504033850 59 233 1.7 2.6 0.00 0.00 0.00 54 1013.2
20260504033348 59 199 1.7 2.6 0.00 0.00 0.00 54 1013.2
20260504032844 59 231 1.7 2.6 0.00 0.00 0.00 54 1013.3
20260504032342 59 225 1.7 1.7 0.00 0.00 0.00 55 1013.1
20260504031838 59 212 3.5 5.2 0.00 0.00 0.00 54 1013.4
20260504031336 58 211 3.5 3.5 0.00 0.00 0.00 55 1013.3
20260504030832 58 188 2.6 3.5 0.00 0.00 0.00 55 1013.3
20260504030329 58 184 3.5 5.2 0.00 0.00 0.00 55 1013.5
20260504025825 58 221 2.6 2.6 0.00 0.00 0.00 55 1013.4
20260504025323 58 228 3.5 5.2 0.00 0.00 0.00 55 1013.5
20260504024819 58 210 1.7 2.6 0.00 0.00 0.00 55 1013.4
20260504024316 59 215 1.7 1.7 0.00 0.00 0.00 55 1013.5
20260504023812 59 224 3.5 5.2 0.00 0.00 0.00 54 1013.6
20260504023309 59 189 1.7 2.6 0.00 0.00 0.00 55 1013.7
20260504022805 58 225 2.6 2.6 0.00 0.00 0.00 55 1013.7
20260504022304 58 209 1.7 1.7 0.00 0.00 0.00 55 1013.6
20260504021758 58 220 2.6 2.6 0.00 0.00 0.00 56 1013.6
20260504021256 58 203 1.7 2.6 0.00 0.00 0.00 56 1013.6
20260504020753 58 195 2.6 3.5 0.00 0.00 0.00 55 1013.5
20260504020249 58 199 3.5 3.5 0.00 0.00 0.00 55 1013.7
20260504015745 58 211 2.6 2.6 0.00 0.00 0.00 56 1013.6
20260504015242 58 203 2.6 3.5 0.00 0.00 0.00 56 1013.7
20260504014737 58 200 2.6 2.6 0.00 0.00 0.00 55 1013.6
20260504014234 58 204 0.9 1.7 0.00 0.00 0.00 56 1013.8
20260504013732 58 217 0.9 1.7 0.00 0.00 0.00 57 1013.6
20260504013230 58 219 0.9 0.9 0.00 0.00 0.00 58 1013.8
20260504012726 58 217 0.9 0.9 0.00 0.00 0.00 57 1014.0
20260504012224 58 218 0.0 0.0 0.00 0.00 0.00 56 1014.0
20260504011720 58 218 0.0 0.9 0.00 0.00 0.00 56 1013.9
20260504011217 59 219 0.0 0.9 0.00 0.00 0.00 55 1013.8
20260504010713 59 219 0.9 0.9 0.00 0.00 0.00 54 1013.8
20260504010209 59 211 0.9 0.9 0.00 0.00 0.00 54 1013.8
20260504005706 59 209 1.7 1.7 0.00 0.00 0.00 53 1013.9
20260504005203 59 228 0.9 0.9 0.00 0.00 0.00 52 1013.9
20260504004701 59 234 0.9 0.9 0.00 0.00 0.00 53 1013.9
20260504004157 59 235 0.0 0.0 0.00 0.00 0.00 53 1014.0
20260504003654 60 235 0.0 0.0 0.00 0.00 0.00 53 1014.1
20260504003151 60 236 0.0 0.0 0.00 0.00 0.00 52 1014.1
20260504002647 61 236 0.0 0.0 0.00 0.00 0.00 50 1014.2
20260504002145 61 236 0.0 0.0 0.00 0.00 0.00 49 1013.9
20260504001643 62 236 0.0 0.9 0.00 0.00 0.00 48 1013.8
20260504001138 62 229 1.7 2.6 0.00 0.00 0.00 48 1013.6
20260504000636 62 227 2.6 2.6 0.00 0.00 0.00 48 1013.9
20260504000133 62 232 1.7 2.6 0.00 0.00 0.00 47 1013.8
20260503235631 63 244 1.7 1.7 0.00 0.00 0.00 46 1013.7
20260503235128 63 243 1.7 1.7 0.00 0.00 0.00 46 1013.5
20260503234626 63 249 1.7 2.6 0.00 0.00 0.00 46 1013.4
20260503234124 63 221 3.5 5.2 0.00 0.00 0.00 46 1013.3
20260503233621 63 239 1.7 2.6 0.00 0.00 0.00 46 1013.4
20260503233116 63 232 2.6 2.6 0.00 0.00 0.00 46 1013.5
20260503232613 63 238 3.5 5.2 0.00 0.00 0.00 46 1013.5
20260503232110 63 214 5.2 6.1 0.00 0.00 0.00 45 1013.3
20260503231609 63 224 3.5 3.5 0.00 0.00 0.00 46 1013.3
20260503231105 63 234 3.5 3.5 0.00 0.00 0.00 45 1013.6
20260503230601 64 213 3.5 5.2 0.00 0.00 0.00 46 1013.6
20260503230059 64 218 2.6 2.6 0.00 0.00 0.00 45 1013.5
20260503225555 64 229 3.5 3.5 0.00 0.00 0.00 45 1013.5
20260503225050 64 223 2.6 3.5 0.00 0.00 0.00 45 1013.6
20260503224548 64 219 8.7 9.6 0.00 0.00 0.00 45 1013.6
20260503224046 64 243 2.6 3.5 0.00 0.00 0.00 45 1013.7
20260503223544 64 226 6.1 8.7 0.00 0.00 0.00 44 1013.7
20260503223039 64 252 3.5 5.2 0.00 0.00 0.00 44 1013.7
20260503222537 64 228 2.6 3.5 0.00 0.00 0.00 45 1013.8
20260503222035 64 254 3.5 6.1 0.00 0.00 0.00 44 1014.0
20260503221533 64 244 2.6 2.6 0.00 0.00 0.00 43 1014.0
20260503221030 64 237 3.5 3.5 0.00 0.00 0.00 43 1014.1
20260503220526 64 236 1.7 1.7 0.00 0.00 0.00 42 1014.2
20260503220023 65 226 4.3 7.0 0.00 0.00 0.00 42 1014.3
20260503215520 65 269 2.6 2.6 0.00 0.00 0.00 43 1014.5
20260503215017 64 241 1.7 1.7 0.00 0.00 0.00 45 1014.8
20260503214516 64 217 3.5 6.1 0.00 0.00 0.00 46 1014.9
20260503214012 64 244 3.5 3.5 0.00 0.00 0.00 44 1014.6
20260503213511 64 233 4.3 6.1 0.00 0.00 0.00 44 1015.0
20260503213007 64 223 3.5 5.2 0.00 0.00 0.00 44 1015.0
20260503212504 64 280 3.5 3.5 0.00 0.00 0.00 44 1015.1
20260503212002 64 232 1.7 1.7 0.00 0.00 0.00 46 1015.0
20260503211459 63 241 1.7 1.7 0.00 0.00 0.00 44 1015.3
20260503210954 63 259 3.5 3.5 0.00 0.00 0.00 42 1015.7
20260503210451 64 214 8.7 9.6 0.00 0.00 0.00 42 1015.9
20260503205951 63 233 1.7 2.6 0.00 0.00 0.00 43 1016.0
20260503205449 64 244 1.7 1.7 0.00 0.00 0.00 42 1016.1
20260503204945 64 252 1.7 2.6 0.00 0.00 0.00 43 1016.1
20260503204442 64 237 3.5 5.2 0.00 0.00 0.00 42 1016.1
20260503203934 64 252 1.7 1.7 0.00 0.00 0.00 41 1016.1
20260503203431 64 252 4.3 6.1 0.00 0.00 0.00 42 1016.0
20260503202927 64 254 2.6 2.6 0.00 0.00 0.00 39 1015.9
20260503202426 64 238 1.7 2.6 0.00 0.00 0.00 43 1015.9
20260503201924 64 248 2.6 2.6 0.00 0.00 0.00 41 1015.9
20260503201421 64 216 4.3 5.2 0.00 0.00 0.00 44 1016.1
20260503200919 64 248 2.6 2.6 0.00 0.00 0.00 40 1016.3
20260503200415 64 233 2.6 3.5 0.00 0.00 0.00 41 1016.4
20260503195911 63 251 1.7 1.7 0.00 0.00 0.00 45 1016.5
20260503195409 63 239 3.5 6.1 0.00 0.00 0.00 42 1016.7
20260503194905 63 246 1.7 1.7 0.00 0.00 0.00 43 1016.8
20260503194402 63 225 7.0 8.7 0.00 0.00 0.00 40 1016.8
20260503193858 63 251 4.3 6.1 0.00 0.00 0.00 40 1016.8
20260503193353 63 248 1.7 2.6 0.00 0.00 0.00 42 1017.0
20260503192849 61 230 3.5 5.2 0.00 0.00 0.00 42 1017.4
20260503192345 62 219 4.3 6.1 0.00 0.00 0.00 42 1017.3
20260503191842 62 242 5.2 6.1 0.00 0.00 0.00 41 1017.5
20260503191338 63 232 5.2 7.0 0.00 0.00 0.00 39 1017.5
20260503190835 63 223 2.6 3.5 0.00 0.00 0.00 38 1017.6
20260503190333 63 236 3.5 5.2 0.00 0.00 0.00 42 1017.5
20260503185830 63 257 0.9 1.7 0.00 0.00 0.00 39 1017.8
20260503185325 63 228 3.5 5.2 0.00 0.00 0.00 40 1018.1
20260503184820 63 232 2.6 2.6 0.00 0.00 0.00 41 1018.2
20260503184316 63 260 4.3 5.2 0.00 0.00 0.00 42 1018.0
20260503183812 63 248 2.6 2.6 0.00 0.00 0.00 39 1018.2
20260503183309 63 244 1.7 2.6 0.00 0.00 0.00 40 1018.3
20260503182807 63 243 0.9 0.9 0.00 0.00 0.00 42 1018.4
20260503182306 63 254 2.6 3.5 0.00 0.00 0.00 42 1018.6
20260503181802 62 235 2.6 2.6 0.00 0.00 0.00 41 1018.4
20260503181259 62 236 3.5 3.5 0.00 0.00 0.00 41 1018.6
20260503180756 62 234 2.6 3.5 0.00 0.00 0.00 40 1018.8
20260503180254 62 249 1.7 1.7 0.00 0.00 0.00 40 1018.8
20260503175750 62 228 3.5 6.1 0.00 0.00 0.00 40 1019.1
20260503175248 62 220 5.2 7.0 0.00 0.00 0.00 40 1019.0
20260503174744 62 231 2.6 2.6 0.00 0.00 0.00 40 1019.2
20260503174242 61 231 3.5 5.2 0.00 0.00 0.00 41 1019.3
20260503173742 62 227 3.5 5.2 0.00 0.00 0.00 40 1019.4
20260503173238 62 239 1.7 2.6 0.00 0.00 0.00 39 1019.6
20260503172735 62 221 1.7 2.6 0.00 0.00 0.00 43 1019.7
20260503172232 61 247 0.9 1.7 0.00 0.00 0.00 40 1019.4
20260503171729 61 239 3.5 3.5 0.00 0.00 0.00 43 1019.5
20260503171226 61 244 2.6 2.6 0.00 0.00 0.00 43 1019.4
20260503170723 61 243 1.7 1.7 0.00 0.00 0.00 39 1019.5
20260503170220 61 229 3.5 3.5 0.00 0.00 0.00 40 1019.7
20260503160142 59 218 1.7 2.6 0.00 0.00 0.00 41 1020.4
20260503150612 57 224 3.5 5.2 0.00 0.00 0.00 41 1021.1
20260503150108 57 219 1.7 2.6 0.00 0.00 0.00 43 1021.0
20260503130955 48 236 2.6 2.6 0.00 0.00 0.00 62 1021.3
20260503130453 47 228 0.9 1.7 0.00 0.00 0.00 62 1021.4
20260503110337 32 295 0.0 0.0 0.00 0.00 0.00 97 1020.7
20260503090223 32 295 0.0 0.0 0.00 0.00 0.00 96 1020.5
20260503081151 33 295 0.0 0.0 0.00 0.00 0.00 95 1020.3
20260503080646 33 295 0.0 0.0 0.00 0.00 0.00 95 1020.4
20260503080144 33 295 0.0 0.0 0.00 0.00 0.00 95 1020.3
20260503072621 33 295 0.0 0.0 0.00 0.00 0.00 95 1020.2
20260503072118 33 295 0.0 0.0 0.00 0.00 0.00 95 1020.1
20260503071614 34 295 0.0 0.0 0.00 0.00 0.00 95 1020.2
20260503071111 34 295 0.0 0.0 0.00 0.00 0.00 95 1020.3
20260503070608 34 295 0.0 0.0 0.00 0.00 0.00 95 1020.5
20260503070106 34 295 0.0 0.0 0.00 0.00 0.00 95 1020.3
20260503055031 35 295 0.0 0.0 0.00 0.00 0.00 94 1020.6
20260503054528 35 295 0.0 0.0 0.00 0.00 0.00 93 1020.5
20260503054025 35 295 0.0 0.0 0.00 0.00 0.00 93 1020.5
20260503053523 35 295 0.0 0.0 0.00 0.00 0.00 93 1020.6
20260503053020 35 295 0.0 0.0 0.00 0.00 0.00 93 1020.6
20260503052517 35 295 0.0 0.0 0.00 0.00 0.00 93 1020.7
20260503052013 35 295 0.0 0.0 0.00 0.00 0.00 93 1020.8